QPF
0.07 0.07 0.06 0.05 0.06 0.07 0.08 0.06 0.04 0.02 0.01 0.01 0.01 0.02 0.02 0.03 0.05 0.06 0.06 0.07 0.07 0.08 0.07 0.04 0.03 0.03 0.05 0.06 0.04 0.03 0.02 0.02 0.02 0.01 0.02 0.02 0.03 0.04 0.04 0.04 0.03 0.03 0.03
0.09 0.07 0.06 0.04 0.04 0.04 0.04 0.03 0.03 0.03 0.01 0.01 0.01 0.02 0.02 0.03 0.04 0.05 0.08 0.09 0.09 0.07 0.05 0.04 0.02 0.03 0.04 0.03 0.04 0.04 0.03 0.02 0.02 0.02 0.02 0.03 0.06 0.04 0.05 0.04 0.04 0.03 0.02
0.06 0.06 0.05 0.04 0.04 0.04 0.03 0.03 0.03 0.02 0.02 0.02 0.02 0.03 0.03 0.04 0.04 0.05 0.07 0.09 0.08 0.06 0.06 0.04 0.04 0.06 0.05 0.03 0.03 0.04 0.04 0.04 0.04 0.03 0.03 0.04 0.05 0.04 0.04 0.04 0.05 0.05 0.04
0.06 0.05 0.04 0.04 0.04 0.03 0.02 0.02 0.03 0.03 0.03 0.03 0.03 0.03 0.03 0.03 0.03 0.03 0.05 0.06 0.08 0.08 0.07 0.06 0.06 0.05 0.04 0.04 0.04 0.05 0.06 0.06 0.05 0.04 0.03 0.04 0.04 0.04 0.04 0.04 0.04 0.05 0.05
0.06 0.05 0.04 0.03 0.04 0.04 0.02 0.02 0.03 0.03 0.02 0.03 0.03 0.03 0.02 0.02 0.03 0.04 0.06 0.08 0.09 0.08 0.06 0.06 0.06 0.05 0.05 0.05 0.05 0.04 0.03 0.03 0.04 0.04 0.04 0.05 0.05 0.04 0.03 0.03 0.03 0.03 0.04
0.05 0.04 0.04 0.03 0.02 0.02 0.02 0.03 0.04 0.04 0.04 0.05 0.06 0.06 0.06 0.07 0.08 0.09 0.09 0.09 0.09 0.07 0.05 0.05 0.05 0.07 0.08 0.08 0.05 0.03 0.02 0.02 0.02 0.03 0.04 0.05 0.05 0.04 0.02 0.03 0.02 0.02 0.02
0.04 0.07 0.08 0.05 0.03 0.02 0.03 0.03 0.03 0.04 0.06 0.07 0.07 0.07 0.09 0.12 0.15 0.14 0.11 0.09 0.08 0.06 0.07 0.09 0.11 0.11 0.08 0.05 0.03 0.03 0.02 0.02 0.02 0.02 0.02 0.04 0.04 0.03 0.02 0.02 0.02 0.02 0.02
0.02 0.04 0.07 0.06 0.03 0.03 0.04 0.05 0.05 0.06 0.07 0.07 0.07 0.07 0.10 0.10 0.10 0.10 0.10 0.08 0.09 0.12 0.13 0.11 0.10 0.08 0.05 0.03 0.03 0.03 0.02 0.01 0.01 0.01 0.02 0.04 0.08 0.05 0.04 0.04 0.04 0.05 0.05
0.02 0.01 0.01 0.03 0.04 0.06 0.07 0.07 0.07 0.07 0.06 0.07 0.07 0.07 0.06 0.05 0.05 0.05 0.06 0.08 0.11 0.11 0.09 0.07 0.06 0.05 0.05 0.05 0.03 0.02 0.02 0.01 0.01 0.01 0.02 0.04 0.07 0.09 0.09 0.07 0.06 0.05 0.05
0.02 0.01 0.02 0.03 0.04 0.06 0.07 0.08 0.07 0.06 0.06 0.06 0.05 0.04 0.04 0.02 0.03 0.04 0.04 0.03 0.05 0.06 0.06 0.06 0.06 0.06 0.06 0.04 0.03 0.02 0.02 0.02 0.02 0.01 0.02 0.03 0.04 0.06 0.09 0.08 0.06 0.05 0.04
0.03 0.03 0.05 0.05 0.06 0.08 0.10 0.09 0.07 0.05 0.04 0.04 0.04 0.03 0.02 0.02 0.03 0.03 0.03 0.02 0.02 0.04 0.04 0.04 0.04 0.04 0.05 0.03 0.02 0.02 0.02 0.03 0.03 0.02 0.02 0.03 0.03 0.03 0.04 0.06 0.06 0.06 0.04
0.03 0.04 0.05 0.03 0.03 0.05 0.10 0.15 0.11 0.06 0.03 0.03 0.04 0.03 0.02 0.02 0.02 0.02 0.02 0.02 0.02 0.03 0.03 0.02 0.03 0.04 0.05 0.04 0.02 0.02 0.02 0.02 0.02 0.02 0.03 0.04 0.04 0.03 0.03 0.03 0.03 0.04 0.03
0.02 0.02 0.02 0.01 0.02 0.03 0.08 0.11 0.08 0.05 0.03 0.02 0.03 0.03 0.02 0.03 0.03 0.03 0.03 0.03 0.04 0.04 0.03 0.02 0.03 0.04 0.04 0.04 0.03 0.02 0.02 0.01 0.01 0.01 0.02 0.03 0.03 0.04 0.04 0.03 0.02 0.02 0.02
0.02 0.02 0.02 0.01 0.01 0.03 0.06 0.12 0.05 0.02 0.03 0.03 0.03 0.03 0.04 0.05 0.05 0.04 0.04 0.05 0.04 0.05 0.04 0.04 0.04 0.04 0.04 0.03 0.02 0.01 0.01 0.01 0.01 0.01 0.01 0.01 0.02 0.03 0.03 0.04 0.03 0.02 0.02
0.02 0.02 0.02 0.02 0.03 0.03 0.06 0.10 0.07 0.03 0.03 0.03 0.03 0.05 0.06 0.07 0.07 0.06 0.04 0.04 0.04 0.05 0.05 0.04 0.03 0.03 0.03 0.03 0.02 0.02 0.02 0.01 0.02 0.02 0.02 0.02 0.02 0.02 0.03 0.02 0.02 0.02 0.01
0.02 0.01 0.01 0.02 0.03 0.03 0.04 0.03 0.03 0.03 0.03 0.03 0.03 0.03 0.03 0.04 0.07 0.07 0.05 0.05 0.06 0.07 0.06 0.04 0.03 0.04 0.04 0.03 0.03 0.03 0.03 0.02 0.02 0.02 0.01 0.01 0.01 0.01 0.02 0.02 0.01 0.01 0.01
0.02 0.02 0.01 0.01 0.02 0.03 0.04 0.03 0.02 0.02 0.03 0.03 0.02 0.02 0.02 0.02 0.04 0.05 0.05 0.05 0.08 0.09 0.07 0.04 0.03 0.03 0.04 0.03 0.02 0.02 0.01 0.01 0.01 0.01 0.00 0.00 0.00 0.00 0.01 0.01 0.01 0.01 0.01
0.02 0.03 0.03 0.02 0.02 0.03 0.04 0.03 0.03 0.03 0.02 0.02 0.02 0.02 0.02 0.02 0.03 0.03 0.04 0.05 0.06 0.06 0.05 0.03 0.03 0.02 0.02 0.01 0.01 0.01 0.01 0.00 0.00 0.00 0.00 0.00 0.00 0.01 0.01 0.01 0.01 0.01 0.01
0.03 0.02 0.02 0.05 0.04 0.05 0.05 0.03 0.03 0.03 0.03 0.02 0.02 0.02 0.02 0.01 0.02 0.03 0.04 0.03 0.03 0.03 0.03 0.02 0.02 0.02 0.02 0.01 0.01 0.01 0.01 0.01 0.01 0.00 0.00 0.00 0.01 0.01 0.01 0.01 0.01 0.01 0.00
0.05 0.05 0.05 0.05 0.04 0.05 0.07 0.04 0.02 0.03 0.03 0.03 0.02 0.02 0.02 0.01 0.01 0.02 0.02 0.02 0.03 0.03 0.02 0.02 0.02 0.02 0.02 0.03 0.02 0.01 0.01 0.01 0.01 0.01 0.01 0.01 0.01 0.01 0.00 0.00 0.00 0.00 0.00
0.05 0.05 0.06 0.05 0.04 0.05 0.08 0.05 0.02 0.02 0.03 0.02 0.01 0.01 0.02 0.01 0.01 0.01 0.02 0.02 0.03 0.03 0.03 0.03 0.02 0.02 0.02 0.03 0.03 0.02 0.02 0.01 0.01 0.01 0.01 0.01 0.01 0.01 0.00 0.00 0.00 0.00 0.00
0.04 0.05 0.06 0.06 0.06 0.07 0.07 0.06 0.04 0.03 0.03 0.02 0.01 0.01 0.01 0.01 0.01 0.02 0.02 0.03 0.03 0.04 0.04 0.04 0.04 0.02 0.02 0.02 0.03 0.03 0.03 0.03 0.02 0.02 0.02 0.01 0.01 0.01 0.01 0.01 0.01 0.01 0.00
0.03 0.03 0.04 0.05 0.07 0.09 0.08 0.05 0.04 0.04 0.04 0.03 0.02 0.01 0.01 0.01 0.01 0.01 0.02 0.03 0.03 0.04 0.05 0.05 0.04 0.03 0.03 0.02 0.02 0.03 0.03 0.03 0.03 0.03 0.03 0.03 0.02 0.02 0.01 0.01 0.01 0.01 0.01
0.04 0.03 0.02 0.04 0.05 0.05 0.05 0.04 0.04 0.04 0.04 0.03 0.02 0.02 0.01 0.01 0.02 0.01 0.01 0.02 0.03 0.03 0.04 0.04 0.04 0.03 0.03 0.03 0.03 0.03 0.02 0.03 0.03 0.02 0.03 0.03 0.02 0.02 0.02 0.02 0.02 0.01 0.01
0.03 0.03 0.03 0.04 0.04 0.04 0.03 0.03 0.03 0.04 0.04 0.03 0.02 0.02 0.01 0.01 0.02 0.02 0.02 0.02 0.02 0.03 0.03 0.03 0.02 0.03 0.03 0.03 0.03 0.03 0.04 0.05 0.05 0.05 0.04 0.04 0.04 0.03 0.02 0.02 0.02 0.02 0.02
0.03 0.03 0.03 0.04 0.04 0.04 0.03 0.03 0.03 0.05 0.05 0.04 0.04 0.03 0.02 0.02 0.01 0.02 0.03 0.03 0.03 0.03 0.03 0.03 0.03 0.03 0.03 0.04 0.04 0.05 0.05 0.04 0.04 0.04 0.04 0.04 0.04 0.04 0.04 0.03 0.03 0.02 0.02
MSLP
1010.70 1010.99 1011.31 1011.62 1011.90 1012.14 1012.35 1012.53 1012.71 1012.91 1013.12 1013.35 1013.59 1013.80 1013.98 1014.11 1014.19 1014.23 1014.25 1014.27 1014.30 1014.37 1014.47 1014.59 1014.73 1014.85 1014.94 1014.97 1014.95 1014.86 1014.71 1014.51 1014.28 1014.02 1013.73 1013.43 1013.11 1012.80 1012.50 1012.24 1012.03 1011.90 1011.88
1010.87 1011.13 1011.38 1011.61 1011.79 1011.93 1012.02 1012.11 1012.20 1012.33 1012.50 1012.71 1012.94 1013.18 1013.40 1013.58 1013.71 1013.79 1013.83 1013.85 1013.85 1013.86 1013.88 1013.91 1013.95 1013.99 1014.01 1014.02 1013.99 1013.95 1013.88 1013.79 1013.68 1013.54 1013.37 1013.16 1012.92 1012.65 1012.36 1012.08 1011.83 1011.63 1011.53
1011.19 1011.40 1011.59 1011.72 1011.78 1011.79 1011.76 1011.72 1011.71 1011.75 1011.85 1012.02 1012.24 1012.48 1012.72 1012.94 1013.11 1013.23 1013.29 1013.31 1013.30 1013.26 1013.22 1013.18 1013.15 1013.11 1013.09 1013.08 1013.07 1013.07 1013.08 1013.10 1013.10 1013.09 1013.04 1012.94 1012.78 1012.57 1012.31 1012.02 1011.74 1011.50 1011.32
1011.67 1011.84 1011.95 1011.98 1011.93 1011.80 1011.64 1011.47 1011.34 1011.27 1011.29 1011.40 1011.57 1011.80 1012.04 1012.26 1012.45 1012.58 1012.65 1012.66 1012.63 1012.57 1012.49 1012.41 1012.33 1012.26 1012.22 1012.21 1012.23 1012.29 1012.37 1012.48 1012.59 1012.69 1012.75 1012.75 1012.68 1012.53 1012.31 1012.04 1011.74 1011.45 1011.20
1012.31 1012.44 1012.49 1012.43 1012.27 1012.02 1011.73 1011.43 1011.18 1011.01 1010.93 1010.95 1011.06 1011.23 1011.43 1011.62 1011.79 1011.90 1011.96 1011.96 1011.92 1011.84 1011.74 1011.64 1011.55 1011.48 1011.45 1011.46 1011.52 1011.63 1011.78 1011.97 1012.16 1012.35 1012.49 1012.57 1012.57 1012.48 1012.30 1012.06 1011.76 1011.44 1011.13
1013.09 1013.19 1013.18 1013.04 1012.79 1012.45 1012.05 1011.66 1011.30 1011.03 1010.86 1010.78 1010.81 1010.89 1011.01 1011.14 1011.24 1011.31 1011.33 1011.30 1011.23 1011.14 1011.04 1010.95 1010.87 1010.82 1010.82 1010.86 1010.97 1011.12 1011.32 1011.55 1011.80 1012.03 1012.23 1012.36 1012.41 1012.37 1012.23 1012.01 1011.72 1011.39 1011.05
1013.95 1014.03 1013.98 1013.80 1013.48 1013.08 1012.62 1012.15 1011.72 1011.37 1011.11 1010.95 1010.87 1010.86 1010.88 1010.90 1010.91 1010.90 1010.85 1010.78 1010.68 1010.58 1010.48 1010.40 1010.35 1010.34 1010.37 1010.45 1010.59 1010.76 1010.98 1011.22 1011.48 1011.72 1011.93 1012.08 1012.15 1012.14 1012.03 1011.84 1011.58 1011.26 1010.90
1014.84 1014.91 1014.84 1014.63 1014.30 1013.87 1013.38 1012.89 1012.43 1012.03 1011.72 1011.48 1011.31 1011.18 1011.09 1011.00 1010.90 1010.78 1010.65 1010.51 1010.37 1010.24 1010.15 1010.08 1010.06 1010.07 1010.13 1010.23 1010.37 1010.54 1010.73 1010.95 1011.17 1011.37 1011.55 1011.68 1011.76 1011.75 1011.67 1011.51 1011.28 1010.99 1010.65
1015.71 1015.77 1015.70 1015.49 1015.17 1014.75 1014.29 1013.82 1013.37 1012.96 1012.61 1012.32 1012.07 1011.86 1011.65 1011.44 1011.22 1010.99 1010.76 1010.54 1010.35 1010.19 1010.08 1010.01 1009.99 1010.02 1010.08 1010.17 1010.28 1010.41 1010.55 1010.70 1010.84 1010.97 1011.09 1011.17 1011.22 1011.21 1011.15 1011.02 1010.84 1010.59 1010.29
1016.50 1016.56 1016.50 1016.31 1016.03 1015.66 1015.26 1014.84 1014.44 1014.06 1013.71 1013.40 1013.10 1012.80 1012.49 1012.17 1011.84 1011.50 1011.17 1010.87 1010.62 1010.41 1010.27 1010.18 1010.15 1010.15 1010.18 1010.23 1010.29 1010.34 1010.40 1010.44 1010.49 1010.52 1010.55 1010.57 1010.57 1010.55 1010.49 1010.40 1010.26 1010.08 1009.84
1017.18 1017.24 1017.19 1017.04 1016.81 1016.53 1016.20 1015.87 1015.54 1015.21 1014.90 1014.59 1014.26 1013.90 1013.52 1013.11 1012.68 1012.25 1011.83 1011.45 1011.13 1010.87 1010.67 1010.55 1010.47 1010.43 1010.41 1010.39 1010.36 1010.32 1010.26 1010.19 1010.11 1010.04 1009.97 1009.91 1009.86 1009.82 1009.77 1009.71 1009.62 1009.50 1009.34
1017.72 1017.77 1017.74 1017.64 1017.48 1017.27 1017.05 1016.81 1016.57 1016.32 1016.05 1015.76 1015.42 1015.04 1014.61 1014.13 1013.63 1013.12 1012.63 1012.18 1011.79 1011.48 1011.23 1011.04 1010.91 1010.80 1010.70 1010.59 1010.47 1010.32 1010.14 1009.95 1009.76 1009.58 1009.42 1009.28 1009.18 1009.11 1009.06 1009.02 1008.97 1008.91 1008.82
1018.11 1018.15 1018.14 1018.08 1017.99 1017.87 1017.74 1017.60 1017.45 1017.28 1017.07 1016.81 1016.48 1016.09 1015.63 1015.12 1014.57 1014.01 1013.47 1012.97 1012.53 1012.16 1011.86 1011.61 1011.41 1011.23 1011.04 1010.85 1010.62 1010.36 1010.08 1009.78 1009.49 1009.21 1008.97 1008.76 1008.61 1008.51 1008.45 1008.41 1008.40 1008.38 1008.34
1018.35 1018.38 1018.38 1018.37 1018.34 1018.30 1018.27 1018.22 1018.15 1018.04 1017.89 1017.66 1017.36 1016.97 1016.51 1015.98 1015.42 1014.84 1014.27 1013.75 1013.28 1012.87 1012.52 1012.22 1011.96 1011.70 1011.44 1011.16 1010.85 1010.50 1010.13 1009.75 1009.37 1009.02 1008.70 1008.44 1008.24 1008.10 1008.02 1007.98 1007.96 1007.96 1007.95
1018.47 1018.48 1018.50 1018.52 1018.55 1018.59 1018.62 1018.65 1018.66 1018.61 1018.50 1018.31 1018.03 1017.66 1017.21 1016.69 1016.14 1015.56 1015.00 1014.47 1014.00 1013.57 1013.20 1012.86 1012.55 1012.25 1011.93 1011.58 1011.20 1010.78 1010.35 1009.91 1009.47 1009.07 1008.70 1008.39 1008.14 1007.96 1007.83 1007.76 1007.72 1007.70 1007.68
1018.51 1018.51 1018.54 1018.59 1018.67 1018.76 1018.86 1018.95 1019.01 1019.01 1018.94 1018.78 1018.53 1018.18 1017.75 1017.27 1016.74 1016.20 1015.67 1015.17 1014.71 1014.29 1013.92 1013.57 1013.23 1012.89 1012.54 1012.15 1011.73 1011.27 1010.80 1010.32 1009.85 1009.40 1009.00 1008.65 1008.35 1008.12 1007.94 1007.80 1007.70 1007.63 1007.58
1018.53 1018.52 1018.56 1018.64 1018.76 1018.90 1019.05 1019.18 1019.27 1019.31 1019.27 1019.13 1018.91 1018.59 1018.20 1017.75 1017.28 1016.79 1016.31 1015.86 1015.44 1015.06 1014.70 1014.36 1014.03 1013.68 1013.30 1012.89 1012.45 1011.98 1011.49 1010.99 1010.50 1010.03 1009.60 1009.20 1008.86 1008.56 1008.31 1008.10 1007.92 1007.77 1007.64
1018.59 1018.58 1018.62 1018.72 1018.87 1019.04 1019.22 1019.39 1019.51 1019.56 1019.54 1019.43 1019.23 1018.96 1018.61 1018.22 1017.80 1017.38 1016.97 1016.59 1016.23 1015.89 1015.57 1015.26 1014.93 1014.59 1014.21 1013.80 1013.36 1012.88 1012.39 1011.88 1011.38 1010.90 1010.44 1010.01 1009.61 1009.25 1008.92 1008.63 1008.36 1008.11 1007.88
1018.73 1018.71 1018.77 1018.88 1019.04 1019.24 1019.44 1019.62 1019.75 1019.82 1019.82 1019.73 1019.56 1019.32 1019.02 1018.69 1018.35 1018.00 1017.66 1017.35 1017.05 1016.77 1016.50 1016.21 1015.91 1015.58 1015.21 1014.81 1014.37 1013.90 1013.41 1012.91 1012.41 1011.91 1011.43 1010.98 1010.54 1010.12 1009.71 1009.33 1008.97 1008.62 1008.29
1018.98 1018.95 1019.01 1019.12 1019.29 1019.49 1019.70 1019.88 1020.02 1020.10 1020.10 1020.03 1019.89 1019.68 1019.44 1019.17 1018.89 1018.62 1018.36 1018.11 1017.88 1017.65 1017.41 1017.15 1016.87 1016.55 1016.20 1015.80 1015.37 1014.91 1014.43 1013.94 1013.44 1012.95 1012.47 1011.99 1011.53 1011.06 1010.60 1010.15 1009.70 1009.26 1008.83
1019.33 1019.29 1019.33 1019.44 1019.60 1019.79 1019.98 1020.15 1020.29 1020.36 1020.37 1020.31 1020.19 1020.03 1019.83 1019.62 1019.40 1019.19 1018.99 1018.80 1018.61 1018.42 1018.21 1017.98 1017.71 1017.40 1017.04 1016.65 1016.23 1015.78 1015.32 1014.84 1014.37 1013.90 1013.43 1012.95 1012.48 1011.99 1011.50 1010.99 1010.48 1009.96 1009.45
1019.74 1019.69 1019.71 1019.80 1019.93 1020.10 1020.26 1020.41 1020.52 1020.58 1020.58 1020.53 1020.43 1020.29 1020.13 1019.97 1019.80 1019.64 1019.48 1019.33 1019.18 1019.01 1018.81 1018.58 1018.31 1017.99 1017.64 1017.25 1016.83 1016.40 1015.96 1015.52 1015.07 1014.64 1014.20 1013.75 1013.29 1012.82 1012.32 1011.79 1011.25 1010.68 1010.10
1020.18 1020.11 1020.10 1020.15 1020.25 1020.37 1020.49 1020.60 1020.67 1020.71 1020.70 1020.64 1020.55 1020.43 1020.30 1020.17 1020.03 1019.91 1019.78 1019.65 1019.50 1019.33 1019.12 1018.88 1018.59 1018.27 1017.90 1017.51 1017.10 1016.69 1016.28 1015.88 1015.48 1015.10 1014.71 1014.32 1013.90 1013.46 1012.99 1012.47 1011.91 1011.32 1010.71
1020.58 1020.48 1020.44 1020.45 1020.50 1020.57 1020.63 1020.69 1020.73 1020.73 1020.70 1020.63 1020.54 1020.44 1020.32 1020.21 1020.09 1019.98 1019.86 1019.72 1019.57 1019.38 1019.15 1018.88 1018.57 1018.22 1017.85 1017.45 1017.05 1016.66 1016.29 1015.93 1015.59 1015.27 1014.95 1014.62 1014.27 1013.88 1013.44 1012.95 1012.41 1011.81 1011.17
1020.90 1020.78 1020.71 1020.67 1020.67 1020.68 1020.70 1020.70 1020.69 1020.65 1020.60 1020.52 1020.42 1020.32 1020.21 1020.10 1020.00 1019.88 1019.76 1019.61 1019.43 1019.22 1018.96 1018.65 1018.31 1017.93 1017.54 1017.14 1016.75 1016.38 1016.04 1015.73 1015.45 1015.19 1014.93 1014.67 1014.38 1014.04 1013.65 1013.19 1012.66 1012.07 1011.42
1021.12 1020.98 1020.88 1020.81 1020.76 1020.72 1020.68 1020.64 1020.58 1020.51 1020.43 1020.34 1020.23 1020.13 1020.03 1019.92 1019.81 1019.69 1019.55 1019.39 1019.18 1018.93 1018.64 1018.30 1017.92 1017.52 1017.10 1016.70 1016.31 1015.95 1015.64 1015.36 1015.12 1014.91 1014.70 1014.49 1014.24 1013.94 1013.58 1013.15 1012.63 1012.04 1011.38
Thickness
5714 5712 5710 5708 5707 5704 5702 5700 5698 5695 5693 5692 5690 5688 5687 5685 5683 5681 5680 5678 5677 5676 5675 5674 5674 5674 5674 5674 5675 5674 5674 5673 5670 5671 5673 5675 5675 5675 5674 5674 5673 5672 5671
5708 5705 5704 5703 5701 5698 5697 5695 5693 5690 5688 5687 5685 5684 5682 5680 5678 5676 5675 5674 5673 5671 5671 5670 5669 5669 5669 5669 5669 5669 5669 5669 5668 5666 5667 5668 5669 5670 5669 5668 5667 5666 5665
5701 5699 5697 5696 5695 5693 5692 5690 5688 5685 5684 5682 5680 5679 5677 5676 5675 5673 5672 5671 5669 5668 5667 5666 5666 5665 5665 5665 5665 5665 5665 5666 5665 5663 5662 5663 5664 5664 5663 5662 5662 5661 5660
5696 5694 5692 5691 5690 5688 5687 5686 5684 5682 5679 5677 5675 5674 5673 5672 5671 5670 5669 5668 5666 5665 5664 5664 5664 5663 5663 5662 5662 5661 5661 5660 5659 5659 5658 5657 5657 5658 5657 5656 5654 5655 5654
5689 5688 5687 5687 5686 5684 5682 5681 5679 5678 5676 5674 5671 5670 5669 5668 5667 5666 5665 5664 5662 5661 5661 5661 5661 5661 5662 5661 5660 5658 5657 5655 5654 5653 5652 5652 5652 5652 5652 5652 5650 5649 5648
5684 5683 5683 5682 5681 5679 5678 5676 5675 5673 5672 5670 5668 5667 5666 5666 5665 5663 5662 5660 5659 5658 5657 5658 5658 5658 5659 5658 5658 5658 5656 5653 5650 5649 5648 5648 5649 5649 5649 5648 5646 5643 5641
5679 5678 5677 5676 5675 5674 5674 5672 5670 5669 5668 5667 5665 5664 5663 5663 5663 5661 5660 5658 5657 5655 5654 5654 5655 5656 5655 5655 5655 5654 5653 5653 5652 5650 5647 5647 5648 5649 5647 5644 5643 5641 5640
5672 5671 5671 5671 5670 5670 5668 5667 5666 5665 5664 5663 5662 5661 5660 5660 5659 5659 5658 5655 5653 5652 5651 5651 5651 5651 5652 5651 5651 5649 5649 5649 5649 5649 5648 5648 5649 5649 5647 5645 5642 5639 5637
5666 5665 5666 5665 5665 5664 5663 5662 5662 5661 5660 5660 5659 5658 5657 5657 5657 5655 5654 5651 5650 5649 5649 5649 5648 5648 5649 5649 5647 5645 5644 5645 5646 5646 5647 5646 5646 5646 5644 5640 5637 5633 5630
5661 5661 5661 5660 5660 5659 5659 5659 5659 5658 5658 5657 5656 5655 5654 5653 5653 5651 5650 5647 5646 5645 5645 5645 5645 5645 5645 5644 5643 5641 5639 5640 5641 5641 5640 5641 5641 5641 5640 5638 5636 5631 5627
5658 5657 5656 5656 5655 5656 5655 5655 5654 5654 5653 5652 5652 5651 5650 5650 5649 5648 5646 5644 5643 5642 5641 5641 5642 5642 5642 5641 5640 5639 5638 5637 5636 5635 5634 5635 5635 5636 5636 5635 5633 5631 5626
5653 5651 5651 5651 5651 5652 5650 5650 5650 5648 5647 5647 5646 5646 5646 5646 5646 5645 5643 5642 5641 5640 5639 5638 5638 5638 5638 5637 5636 5636 5634 5633 5631 5629 5628 5628 5629 5630 5630 5630 5629 5627 5626
5647 5646 5645 5646 5646 5646 5645 5645 5644 5643 5642 5641 5641 5641 5641 5642 5642 5642 5640 5639 5638 5637 5637 5636 5636 5635 5634 5633 5633 5632 5630 5628 5626 5624 5624 5624 5625 5625 5625 5624 5623 5621 5620
5641 5640 5640 5640 5640 5641 5641 5640 5640 5639 5638 5637 5637 5637 5637 5637 5637 5637 5636 5635 5635 5634 5633 5632 5632 5631 5630 5629 5628 5627 5626 5624 5623 5621 5621 5620 5619 5619 5618 5618 5615 5614 5612
5636 5635 5634 5635 5635 5635 5635 5635 5635 5636 5635 5634 5634 5634 5633 5633 5635 5634 5632 5632 5631 5629 5628 5626 5625 5624 5623 5623 5622 5622 5621 5620 5619 5618 5617 5615 5614 5614 5613 5612 5610 5607 5604
5630 5630 5629 5629 5629 5629 5628 5628 5630 5631 5633 5633 5633 5632 5632 5633 5633 5631 5630 5630 5628 5626 5623 5621 5620 5619 5619 5618 5617 5617 5617 5616 5616 5615 5613 5611 5610 5609 5608 5606 5604 5601 5598
5625 5625 5625 5624 5624 5623 5622 5621 5622 5625 5628 5629 5630 5630 5630 5630 5629 5628 5627 5625 5623 5622 5620 5618 5617 5616 5615 5614 5614 5613 5613 5613 5612 5610 5608 5607 5606 5604 5602 5599 5597 5595 5593
5621 5621 5621 5620 5619 5619 5618 5618 5618 5619 5621 5623 5625 5626 5626 5626 5625 5624 5622 5620 5617 5617 5616 5615 5614 5613 5613 5612 5611 5610 5609 5608 5606 5605 5603 5602 5600 5598 5595 5593 5591 5589 5587
5617 5617 5617 5617 5616 5616 5616 5616 5616 5617 5617 5617 5618 5620 5621 5621 5620 5618 5616 5615 5614 5614 5613 5613 5612 5611 5610 5608 5607 5606 5605 5603 5602 5600 5599 5596 5594 5592 5590 5588 5586 5584 5581
5612 5613 5613 5612 5612 5612 5613 5613 5612 5612 5612 5613 5613 5614 5614 5613 5612 5611 5610 5610 5610 5610 5610 5609 5609 5608 5607 5605 5604 5602 5600 5599 5597 5595 5594 5592 5589 5587 5584 5583 5581 5578 5575
5606 5607 5608 5608 5607 5608 5609 5609 5608 5608 5608 5609 5609 5610 5610 5609 5609 5608 5607 5606 5606 5606 5606 5606 5605 5604 5603 5601 5599 5597 5596 5594 5592 5591 5589 5587 5584 5582 5580 5578 5575 5573 5570
5600 5602 5602 5602 5603 5604 5605 5605 5604 5603 5604 5604 5605 5605 5604 5604 5605 5604 5604 5603 5603 5602 5602 5601 5600 5599 5599 5597 5595 5593 5591 5589 5587 5585 5583 5582 5579 5577 5575 5572 5569 5566 5564
5595 5596 5597 5598 5599 5600 5600 5601 5600 5599 5599 5599 5599 5599 5598 5598 5599 5599 5599 5598 5597 5597 5597 5596 5595 5594 5593 5592 5591 5589 5586 5584 5583 5581 5578 5576 5573 5571 5568 5565 5562 5559 5557
5590 5591 5592 5593 5594 5594 5595 5596 5596 5595 5594 5594 5594 5594 5594 5594 5594 5593 5593 5592 5592 5591 5590 5590 5589 5588 5587 5586 5585 5584 5582 5580 5578 5576 5573 5570 5567 5565 5562 5559 5557 5554 5551
5585 5586 5586 5587 5589 5590 5590 5590 5590 5590 5590 5590 5589 5589 5589 5588 5588 5587 5587 5586 5585 5584 5584 5583 5582 5582 5581 5580 5579 5578 5576 5574 5572 5570 5568 5564 5562 5559 5556 5553 5550 5547 5544
5580 5581 5582 5583 5583 5584 5584 5584 5584 5585 5585 5585 5584 5583 5583 5582 5581 5581 5580 5580 5578 5577 5576 5576 5575 5575 5574 5573 5572 5570 5569 5567 5565 5563 5561 5559 5556 5553 5550 5547 5544 5541 5539